Погода в Дегтяревке

Россия / Брянская область     53°15′22″N   32°39′12″E
темп.,
°C
ветер,
м/с
пор.,
м/с
влажн.,
%
обл.,
%
осадки,
мм/ч
давл.,
гПа
погр.,
м
18 апреля, вс
вс1800:00+7ююз1197100 0.8 101664
03:00+6юз1198100 1.6 1015126
06:00+6в2397100 2.6 1015278
09:00+6вюв3692100 2.8 1017502
12:00+10вюв3464100 0.1 10181381
15:00+10ссв3467100 0.1 1019801
18:00+9с357933 0.1 1018349
21:00+7ссв37908 0.3 1020372
19 апреля, пн
пн1900:00+4ссв379727 0.0 1020198
03:00+5ссв379221 0.0 1020329
06:00+3ссв379770 0.0 1020216
09:00+7св4785100 0.0 1020497
12:00+9всв5777100 0.0 1020802
15:00+11св566860 0.2 10201133
18:00+7св4884100 0.1 1020769
21:00+5св4791100 0.1 1021746
20 апреля, вт
вт2000:00+4всв3896100 0.0 1020642
03:00+4всв4784100 0.1 1019774
06:00+3св4794100 0.1 1017635
09:00+3св3597100 0.2 1016497
12:00+3св3596100 0.1 1015457
15:00+5св4690100 0.2 1013581
18:00+6с4784100 0.0 1009587
21:00+5с51196100 0.3 1007537
21 апреля, ср
ср2100:00+5с5996100 0.8 1003828
03:00+3ссз51097100 1.8 1002533
06:00+2зсз51197100 0.6 1002471
09:00+3зсз61296100 1.1 1004685
12:00+4з51190100 0.1 10061106
15:00+6з51075100 0.2 1009984
18:00+7зюз4976100 0.0 1011669
21:00+5ююз3883100 0.1 1013214
22 апреля, чт
чт2200:00+3ююз398685 0.0 1014160
03:00+5ююз3108777 0.1 1015279
06:00+5ююз389278 0.0 1016201
09:00+9ююз357972 0.3 1017412
12:00+13юз35606 0.7 10171142
15:00+15юз354967 1.5 10171929
18:00+14ююз355774 0.0 1017552
21:00+10ююв367338 0.0 1018104